Meteo Giornale » Osservazioni meteo Italia » Verona-Villafranca

ore: 19:50 - Osservazioni Meteo Verona-Villafranca
Lat. 45° 23' N Lon. 10° 52' E Alt. 67 metri s.l.m.

foschia Europe/Rome

11 °C

Foschia

Temp. 24 Ore

10 °C

15 °C

Nord

3.7 Km/h

Dew point 11 °C

Umidità 100 %

Visibilità  2 Km

Il sole sorge alle ore 07:37

Il sole tramonta alle ore 18:25

Data e Ora Cielo e Fenomeni T °C DP °C Um. % Pres. hPa Vis. km Vento km/h
Oggi h: 19:50 foschia Foschia 11 11 100 1019 2 N 3.7
Oggi h: 19:20 foschia Foschia 12 11 93 1018 2 N 5.5
Oggi h: 18:50 foschia Foschia 13 11 87 1018 2 N 5.5
Oggi h: 18:20 foschia Foschia 14 11 82 1018 2 N 5.5
Oggi h: 17:50 foschia Foschia 15 12 82 1018 3 N 5.5
Oggi h: 17:20 foschia Foschia 15 12 82 1018 3 E/SE 7.4
Oggi h: 16:50 foschia Foschia 15 11 76 1018 3 N 5.5
Oggi h: 16:20 foschia Foschia 15 12 82 1018 3 N 5.5
Oggi h: 15:50 foschia Foschia 15 12 82 1018 3 N 3.7
Oggi h: 15:20 foschia Foschia 15 12 82 1019 3 N 5.5
Oggi h: 14:50 foschia Foschia 15 12 82 1019 2 N 3.7
Oggi h: 14:20 foschia Foschia 14 12 87 1019 2 SE 7.4
Oggi h: 13:50 foschia Foschia 15 12 82 1019 2 SE 9.3
Oggi h: 13:20 foschia Foschia 15 12 82 1020 2 SE 7.4
Oggi h: 12:50 foschia Foschia 14 12 87 1020 1 N 5.5
Oggi h: 12:20 foschia Foschia 13 12 93 1020 1 N 3.7
Oggi h: 11:50 foschia Foschia 13 12 93 1020 1 N 1.8
Oggi h: 11:20 foschia Foschia 12 12 100 1020 2 N 1.8
Oggi h: 10:50 foschia Foschia 12 11 93 1020 2 N 1.8
Oggi h: 10:20 foschia Foschia 12 11 93 1020 2 N 1.8
Oggi h: 09:50 foschia Foschia 11 11 100 1020 1 N 3.7
Oggi h: 09:20 foschia Foschia 11 10 93 1019 1 N 3.7
Oggi h: 08:50 nebbia Nebbia 11 10 93 1019 0.9 N 3.7
Oggi h: 08:20 nebbia Nebbia 11 10 93 1019 0.8 N 5.5
Oggi h: 07:50 nebbia Nebbia 11 10 93 1018 0.7 N 5.5
Oggi h: 07:20 nebbia Nebbia 11 10 93 1019 0.5 N 3.7
Oggi h: 06:50 nebbia Nebbia 11 10 93 1019 0.3 N 7.4
Oggi h: 06:20 nebbia Nebbia 11 10 93 1019 0.3 N 5.5
Oggi h: 05:50 nebbia Nebbia 10 10 100 1019 0.3 N 3.7
Oggi h: 05:20 nebbia Nebbia 10 10 100 1018 0.3 N 1.8
Oggi h: 04:50 nebbia Nebbia 10 10 100 1018 0.2 N 3.7
Oggi h: 04:20 nebbia Nebbia 10 10 100 1018 0.2 N 3.7
Oggi h: 03:50 nebbia Nebbia 10 9 93 1019 0.2 N 3.7
Oggi h: 03:20 nebbia Nebbia 10 9 93 1019 0.2 N 3.7
Oggi h: 02:50 nebbia Nebbia 10 10 100 1019 0.2 N 3.7
Oggi h: 02:20 nebbia Nebbia 11 10 93 1019 0.2 N 3.7
Oggi h: 01:50 nebbia Nebbia 11 10 93 1019 0.2 N 1.8
Oggi h: 01:20 nebbia Nebbia 11 10 93 1019 0.2 N 1.8
Oggi h: 00:50 nebbia Nebbia 11 10 93 1019 0.2 N 1.8
Oggi h: 00:20 nebbia Nebbia 11 10 93 1019 0.2 N 3.7
Ieri h: 23:50 nebbia Nebbia 10 10 100 1019 0.2 N 5.5
Ieri h: 23:20 foschia Foschia 11 10 93 1019 2 N 5.5
Ieri h: 22:50 foschia Foschia 11 11 100 1019 2 N 5.5
Ieri h: 21:50 foschia Foschia 12 11 93 1019 2 N 5.5
Ieri h: 21:20 foschia Foschia 12 11 93 1019 3 N 3.7
Ieri h: 20:50 foschia Foschia 12 11 93 1019 5 N 3.7